TimeEDT,TemperatureF,Dew PointF,Humidity,Sea Level PressureIn,VisibilityMPH,Wind Direction,Wind SpeedMPH,Gust SpeedMPH,PrecipitationIn,Events,Conditions,WindDirDegrees,DateUTC
12:10 AM,49.1,28.9,46,30.35,10.0,North,4.6,-,N/A,,Clear,350,2013-04-21 04:10:00
12:25 AM,48.6,28.9,47,30.36,10.0,North,4.6,-,N/A,,Clear,350,2013-04-21 04:25:00
12:50 AM,48.0,28.8,47,30.37,10.0,North,5.8,-,N/A,,Clear,350,2013-04-21 04:50:00
1:10 AM,47.8,28.4,47,30.37,10.0,North,4.6,-,N/A,,Clear,350,2013-04-21 05:10:00
1:30 AM,45.9,31.5,57,30.38,10.0,Calm,Calm,-,N/A,,Clear,0,2013-04-21 05:30:00
1:50 AM,45.3,29.3,54,30.39,10.0,NNW,4.6,-,N/A,,Clear,330,2013-04-21 05:50:00
2:10 AM,45.9,28.2,50,30.39,10.0,NNW,4.6,-,N/A,,Clear,340,2013-04-21 06:10:00
2:30 AM,46.0,27.7,49,30.39,10.0,NNW,3.5,-,N/A,,Clear,330,2013-04-21 06:30:00
2:50 AM,43.2,32.4,66,30.40,10.0,Calm,Calm,-,N/A,,Clear,0,2013-04-21 06:50:00
3:10 AM,43.0,29.5,59,30.41,10.0,North,3.5,-,N/A,,Clear,350,2013-04-21 07:10:00
3:30 AM,44.6,27.9,52,30.42,10.0,North,3.5,-,N/A,,Clear,350,2013-04-21 07:30:00
3:50 AM,44.6,28.2,53,30.43,10.0,NNW,3.5,-,N/A,,Clear,340,2013-04-21 07:50:00
4:10 AM,43.0,28.9,58,30.44,10.0,North,3.5,-,N/A,,Clear,350,2013-04-21 08:10:00
4:30 AM,41.2,30.7,66,30.45,10.0,Calm,Calm,-,N/A,,Clear,0,2013-04-21 08:30:00
4:50 AM,41.9,30.0,63,30.46,10.0,North,4.6,-,N/A,,Clear,350,2013-04-21 08:50:00
5:10 AM,43.2,27.7,54,30.47,10.0,North,4.6,-,N/A,,Clear,10,2013-04-21 09:10:00
5:30 AM,42.6,27.5,55,30.48,10.0,North,3.5,-,N/A,,Clear,350,2013-04-21 09:30:00
5:50 AM,42.1,27.3,56,30.50,10.0,Calm,Calm,-,N/A,,Clear,0,2013-04-21 09:50:00
6:10 AM,41.7,27.3,57,30.51,10.0,North,5.8,-,N/A,,Clear,350,2013-04-21 10:10:00
6:30 AM,41.4,26.2,55,30.52,10.0,Calm,Calm,-,N/A,,Clear,0,2013-04-21 10:30:00
6:45 AM,41.4,26.8,56,30.53,10.0,Calm,Calm,-,N/A,,Clear,0,2013-04-21 10:45:00
7:10 AM,42.3,26.2,53,30.55,10.0,North,3.5,-,N/A,,Clear,10,2013-04-21 11:10:00
7:30 AM,42.8,25.7,51,30.56,10.0,North,6.9,-,N/A,,Clear,360,2013-04-21 11:30:00
7:50 AM,43.7,25.0,48,30.57,10.0,NNE,6.9,-,N/A,,Clear,20,2013-04-21 11:50:00
8:05 AM,44.1,23.9,45,30.57,10.0,North,9.2,-,N/A,,Clear,10,2013-04-21 12:05:00
8:30 AM,44.6,22.5,42,30.58,10.0,North,9.2,-,N/A,,Clear,360,2013-04-21 12:30:00
8:50 AM,45.9,22.8,40,30.59,10.0,NNE,10.4,-,N/A,,Clear,20,2013-04-21 12:50:00
9:05 AM,46.2,23.7,41,30.58,10.0,NNE,8.1,-,N/A,,Clear,20,2013-04-21 13:05:00
10:30 AM,48.2,23.5,38,30.61,10.0,NNE,4.6,-,N/A,,Clear,30,2013-04-21 14:30:00
10:50 AM,49.3,25.9,40,30.60,10.0,North,9.2,-,N/A,,Clear,350,2013-04-21 14:50:00
11:10 AM,48.9,25.5,40,30.60,10.0,NW,6.9,-,N/A,,Clear,320,2013-04-21 15:10:00
11:30 AM,50.4,27.0,40,30.60,10.0,NNE,3.5,-,N/A,,Clear,20,2013-04-21 15:30:00
11:50 AM,50.7,27.0,40,30.60,10.0,NNW,6.9,-,N/A,,Clear,330,2013-04-21 15:50:00
12:10 PM,51.3,25.3,37,30.59,10.0,North,6.9,-,N/A,,Clear,350,2013-04-21 16:10:00
12:30 PM,51.4,26.2,38,30.59,10.0,NE,3.5,-,N/A,,Clear,50,2013-04-21 16:30:00
12:50 PM,52.0,26.4,37,30.58,10.0,NNW,10.4,-,N/A,,Clear,330,2013-04-21 16:50:00
1:10 PM,52.2,25.5,36,30.58,10.0,NNW,4.6,-,N/A,,Clear,340,2013-04-21 17:10:00
1:30 PM,53.4,25.9,34,30.57,10.0,NNE,5.8,-,N/A,,Clear,20,2013-04-21 17:30:00
1:50 PM,54.1,26.4,34,30.56,10.0,NW,4.6,-,N/A,,Clear,320,2013-04-21 17:50:00
2:05 PM,54.0,26.2,34,30.56,10.0,North,9.2,-,N/A,,Clear,350,2013-04-21 18:05:00
2:30 PM,54.5,26.1,33,30.56,10.0,ENE,4.6,-,N/A,,Clear,60,2013-04-21 18:30:00
2:55 PM,55.4,26.1,32,30.55,10.0,North,4.6,-,N/A,,Clear,360,2013-04-21 18:55:00
3:15 PM,55.9,27.5,34,30.55,10.0,NNE,5.8,-,N/A,,Clear,30,2013-04-21 19:15:00
3:35 PM,55.8,26.6,33,30.53,10.0,East,4.6,-,N/A,,Clear,90,2013-04-21 19:35:00
3:55 PM,56.3,25.2,30,30.53,10.0,Calm,Calm,-,N/A,,Clear,0,2013-04-21 19:55:00
4:15 PM,55.9,25.2,31,30.53,10.0,North,6.9,-,N/A,,Clear,10,2013-04-21 20:15:00
4:35 PM,55.9,24.4,30,30.53,10.0,Calm,Calm,-,N/A,,Clear,0,2013-04-21 20:35:00
4:50 PM,56.3,25.0,30,30.52,10.0,ENE,3.5,-,N/A,,Clear,60,2013-04-21 20:50:00
5:15 PM,56.3,25.5,31,30.52,10.0,Calm,Calm,-,N/A,,Clear,0,2013-04-21 21:15:00
5:35 PM,55.8,26.6,33,30.53,10.0,East,5.8,-,N/A,,Clear,100,2013-04-21 21:35:00
5:55 PM,56.3,28.2,34,30.53,10.0,ESE,6.9,-,N/A,,Clear,110,2013-04-21 21:55:00
6:15 PM,56.3,28.2,34,30.54,10.0,ESE,8.1,-,N/A,,Clear,110,2013-04-21 22:15:00
6:35 PM,54.7,27.3,35,30.54,10.0,ESE,8.1,-,N/A,,Clear,110,2013-04-21 22:35:00
6:55 PM,54.1,27.5,36,30.55,10.0,East,6.9,-,N/A,,Clear,90,2013-04-21 22:55:00
7:15 PM,53.6,27.1,36,30.54,10.0,East,3.5,-,N/A,,Clear,100,2013-04-21 23:15:00
7:35 PM,52.7,26.6,36,30.55,10.0,ESE,4.6,-,N/A,,Clear,110,2013-04-21 23:35:00
7:55 PM,51.8,27.3,39,30.56,10.0,ESE,4.6,-,N/A,,Clear,110,2013-04-21 23:55:00
8:15 PM,50.9,27.3,40,30.56,10.0,East,3.5,-,N/A,,Clear,100,2013-04-22 00:15:00
8:35 PM,50.4,27.7,42,30.56,10.0,East,3.5,-,N/A,,Clear,90,2013-04-22 00:35:00
8:55 PM,50.0,28.0,43,30.57,10.0,Calm,Calm,-,N/A,,Clear,0,2013-04-22 00:55:00
9:15 PM,49.1,28.2,44,30.57,10.0,Calm,Calm,-,N/A,,Clear,0,2013-04-22 01:15:00
9:35 PM,48.0,29.8,49,30.58,10.0,Calm,Calm,-,N/A,,Clear,0,2013-04-22 01:35:00
9:55 PM,45.9,32.0,58,30.58,10.0,Calm,Calm,-,N/A,,Clear,0,2013-04-22 01:55:00
10:15 PM,45.1,32.0,60,30.58,10.0,Calm,Calm,-,N/A,,Clear,0,2013-04-22 02:15:00
10:35 PM,44.6,33.1,64,30.58,10.0,Calm,Calm,-,N/A,,Clear,0,2013-04-22 02:35:00
10:55 PM,43.0,33.4,69,30.59,10.0,Calm,Calm,-,N/A,,Clear,0,2013-04-22 02:55:00
11:15 PM,46.0,33.4,61,30.59,10.0,ESE,4.6,-,N/A,,Clear,110,2013-04-22 03:15:00
11:35 PM,46.0,34.7,65,30.59,10.0,SE,3.5,-,N/A,,Clear,130,2013-04-22 03:35:00
11:55 PM,45.9,35.4,67,30.59,10.0,ESE,5.8,-,N/A,,Clear,120,2013-04-22 03:55:00